STARLINK-5728, 55588

Orbit data source: Space-Track

STARLINK-5728, 55588 is a payload satellite owned by SpaceX/Seattle (US) in LEO that was launched on Sun, 12 Feb 2023 UTC via an FALCON 9 launch vehicle from the Air Force Eastern Test Range (AFETR). Payload-class satellites include a variety of spacecraft equipped with specific instruments for various scientific and technological missions. These include communications satellites like Starlink; space stations such as the ISS; scientific satellites like the Hubble; Earth observation satellites from companies like Planet Labs, Umbra, and HawkEye 360; GPS; miniature CubeSats for education and research; and military/defense satellites.

Loading next visibility...
Identifier
55588, 2023-020V
Orbit
LEO
Country
Flag of USUS
Related business
Manufacturer
SpaceX/Seattle
Mission
Operational Commercial Communications
Bus & Motor
STARLINK, Unknown motor
Mass
305 kg wet, ~290 kg dry
Launch date (UTC)
2023-02-12 (3 years ago)
Launch vehicle
FALCON 9
Launch site
Air Force Eastern Test Range (AFETR)
Object type
Payload
Rocket body
Debris
Shape & HBR
Box + 1 Pan, 10.1 m
Radar Cross Section
13.562 m², Large (>1 m²)

Expand to show TLE details & history
Last TLE update: 11 hours ago

TLE from 11 hours ago
0 STARLINK-5728
1 55588U 23020V   26062.16668981  .00026578  00000-0  17783-2 0  9995
2 55588  42.9998  39.8348 0000952 245.6352  18.2882 15.06465635  5760
Epoch: 2026-03-03T04:00Z
TLE epoch observation values (Epoch: 2026-03-03T04:00:01.999Z)
Latitude
-42.85847°
Longitude
80.61517°
Altitude
559.625 km
Speed
7.582 km/s
True Right ascension
20h 06m 17s
True Declination
-42° 40' 56"
Sunlit
Object was in daylight at epoch
Visualization orbit readout
Latitude
Unknown
Longitude
Unknown
Altitude
Unknown
Speed
Unknown
Apparent Right ascension
Unknown
Apparent Declination
Unknown
Sunlit
N/A
Visualization observer readout
Local Sidereal Time
18:21:07
Azimuth
Unknown
Elevation
Unknown
Doppler factor
Unknown
Orbital elements
Apogee altitude
549.597 km
Perigee altitude
548.278 km
Semi-major axis
6,927.075 km
Eccentricity
0.0001
Inclination
42.9998°
RAAN
39.8348°
Arg. of periapsis
245.6352°
True anomaly
18.29162°
Mean anomaly
18.2882°
Eccentric anomaly
18.28991°
Mean motion
3.7646 °/min
Orbital period
95.63 mins
BSTAR
0.0017783
Loading maneuver chart data...
Computing Atmospheric mass density...
Loading historical data...
Loading historical data...
Loading historical data...
Loading historical data...
Loading historical data...
Loading historical data...
Loading historical data...

Documentation

Showing up to 5 results
|